Theta_e
297 297 298 297 298 298 296 288 279 294 297 281 282 278 282 286 286 289 287 287 285 285 288 287 287 287 290 296 294 288 292 289 282 284 288 289 291 288 287 282 282 283 284 286
297 297 297 298 299 298 292 283 282 292 292 275 277 280 281 284 284 285 285 284 287 288 286 284 289 290 295 295 294 291 293 286 281 280 285 287 285 287 289 290 287 284 283 286
297 298 298 298 298 298 293 283 277 282 285 284 280 277 277 277 285 284 287 286 288 285 284 288 286 289 292 295 295 296 295 289 286 283 285 288 282 285 287 287 284 284 285 287
297 297 297 297 297 298 293 284 279 283 277 278 280 280 279 277 278 285 286 284 285 284 281 283 284 289 291 292 295 294 291 285 286 288 289 289 287 285 285 284 288 285 288 286
297 297 297 297 297 297 288 280 280 282 281 282 279 279 278 276 278 280 281 281 284 285 282 284 283 287 289 288 291 291 291 284 287 284 284 286 284 287 285 285 287 287 287 286
296 297 297 297 297 296 285 286 286 283 280 280 278 277 278 280 282 282 284 284 284 283 285 289 289 292 290 288 288 288 288 285 284 281 281 283 280 284 285 286 289 289 285 291
296 297 297 297 296 296 290 287 287 281 275 278 278 281 281 280 282 280 284 285 282 287 293 292 289 286 286 287 286 287 286 286 285 283 281 275 287 294 291 288 289 291 291 293
296 296 297 297 296 296 291 290 286 282 277 280 280 281 281 283 284 282 283 285 287 290 287 282 280 280 280 282 285 285 286 287 283 281 280 284 285 290 289 287 288 292 291 293
296 296 296 296 296 296 293 288 289 285 279 279 283 282 282 280 280 282 282 287 289 288 283 281 275 273 277 277 281 287 285 287 285 282 279 277 288 291 294 293 286 296 293 294
296 296 296 296 296 296 292 289 291 286 280 282 284 281 281 284 283 280 282 283 283 287 280 276 276 275 281 276 276 281 280 283 281 282 281 284 291 291 295 284 288 298 299 296
296 296 296 296 296 295 293 288 291 287 282 282 284 285 283 283 284 279 282 282 282 281 277 277 277 276 279 278 281 280 278 281 281 282 280 278 290 291 289 295 295 293 297 298
295 295 295 295 295 295 295 285 291 292 285 284 287 287 288 289 289 284 285 283 282 284 281 281 281 278 280 279 274 283 276 279 278 283 284 292 292 295 298 295 295 293 294 297
295 295 295 295 295 295 294 287 290 287 283 283 284 284 288 290 290 292 283 284 286 285 289 285 283 278 282 276 277 280 283 286 282 282 288 289 291 292 295 292 293 292 292 294
295 295 295 295 295 295 293 288 290 288 284 278 279 286 285 290 292 290 289 288 289 289 288 284 282 280 285 281 282 281 284 285 283 283 286 288 290 292 293 291 291 291 292 294
294 295 294 294 295 295 293 291 291 291 285 278 277 283 286 288 290 290 290 289 288 285 283 281 280 284 284 284 283 280 285 283 281 282 286 286 288 289 291 291 291 291 291 291
294 293 292 293 295 294 288 282 289 292 288 280 275 280 280 285 287 288 288 289 287 287 284 283 283 281 284 279 278 283 286 287 287 285 289 287 288 289 290 290 289 289 291 293
293 291 293 295 295 291 284 282 288 293 291 281 276 277 281 284 285 285 285 287 286 287 284 282 283 282 285 280 278 282 285 287 288 289 288 286 288 288 287 287 286 285 286 288
292 293 295 293 294 292 286 291 293 292 285 282 272 275 279 285 280 280 285 283 284 283 283 282 282 282 283 278 282 284 286 288 288 288 288 288 287 283 281 283 285 284 284 284
293 294 293 288 285 284 285 294 291 287 285 277 275 273 272 284 281 282 283 284 278 281 280 279 281 279 277 281 282 283 285 285 286 285 284 283 285 284 281 282 282 281 280 281
293 286 282 280 284 293 290 285 282 282 278 274 275 272 275 281 279 279 280 281 277 274 278 280 279 277 282 279 279 279 279 279 281 280 278 280 282 281 281 282 282 282 281 279
282 276 277 284 290 284 280 277 275 273 271 272 272 272 274 280 276 277 278 276 275 272 276 277 276 275 278 271 273 272 272 273 274 276 278 279 282 282 280 279 280 280 279 278
281 283 285 284 278 275 271 269 269 271 270 269 272 273 276 277 280 277 274 274 273 270 275 275 272 272 263 263 265 267 267 268 270 273 276 278 282 282 282 280 279 279 276 275
281 277 275 276 272 270 270 266 265 266 267 269 272 272 275 275 277 274 274 270 269 272 272 273 269 261 260 259 263 264 266 268 269 272 275 277 277 280 280 279 276 275 275 275
272 271 269 270 267 267 263 263 263 264 267 269 272 271 273 272 271 271 270 268 269 267 266 270 260 256 257 259 260 263 266 269 270 271 273 273 273 273 274 274 275 276 274 273
269 270 267 263 259 259 259 258 260 263 263 267 270 270 272 270 268 267 268 265 267 268 266 257 256 255 257 258 259 261 264 267 268 269 270 271 272 272 272 273 274 274 274 273
262 258 260 258 259 260 258 257 259 261 261 264 269 271 270 267 266 267 266 267 267 258 253 254 254 254 255 256 258 261 265 266 267 269 269 269 270 270 269 270 271 271 270 270
256 254 252 254 256 255 255 255 256 259 260 267 267 271 267 262 261 259 251 255 253 252 252 254 254 254 255 257 259 260 264 265 265 266 267 267 268 268 268 265 265 265 264 264
Wind_Speed
24 28 26 26 28 26 21 12 15 10 15 18 9 19 15 23 24 25 20 13 23 25 25 23 18 30 22 22 23 29 17 3 8 11 2 5 18 17 14 10 11 6 5 13
22 21 21 26 27 24 11 11 8 5 16 20 19 18 17 21 14 28 27 21 17 24 25 25 26 18 19 12 23 20 20 8 8 4 3 5 11 11 20 14 3 12 8 17
22 21 20 25 23 25 15 5 5 7 9 13 17 22 27 23 26 23 27 25 24 22 26 24 16 26 13 15 23 17 14 5 20 19 22 13 15 23 19 17 7 21 16 27
19 17 21 17 19 19 8 5 7 5 9 14 19 25 20 28 25 29 24 25 27 23 26 26 27 21 23 11 19 21 9 16 15 23 5 17 18 20 20 19 29 16 29 27
20 20 22 21 18 18 7 3 4 4 6 16 24 29 24 31 32 19 24 32 27 28 21 25 24 25 22 19 13 23 13 5 16 17 8 7 10 22 24 27 23 20 11 18
22 19 23 24 22 18 4 4 4 3 7 13 15 23 31 24 29 25 33 18 25 30 27 24 7 12 4 1 8 16 15 8 8 20 10 5 6 21 28 23 21 31 17 39
22 23 24 25 21 21 4 4 2 6 14 15 18 20 30 30 25 24 17 17 16 5 6 9 5 3 6 8 8 7 8 12 6 9 11 18 13 17 18 24 20 23 25 28
24 24 24 24 21 19 4 3 4 4 7 15 12 15 25 20 20 22 17 13 10 5 7 6 8 7 8 10 14 13 12 16 13 8 15 3 8 16 21 22 29 20 29 32
26 25 25 23 22 20 4 3 3 4 3 8 8 13 16 9 10 10 4 3 10 14 4 6 9 8 5 8 6 16 15 23 18 8 14 23 15 14 11 12 16 23 31 26
30 28 25 23 23 20 6 3 8 3 4 2 6 8 11 7 10 7 6 9 9 15 6 5 5 4 6 8 8 6 17 17 23 21 11 6 7 17 19 16 15 18 25 23
31 29 25 24 21 19 11 3 11 5 3 3 4 5 10 6 9 8 6 6 3 7 6 3 4 4 5 6 4 5 2 10 13 17 15 12 8 17 24 22 7 1 6 20
29 26 23 22 21 21 14 3 9 4 2 2 1 3 3 13 14 6 6 2 5 6 5 5 4 3 4 6 6 3 5 7 7 5 5 4 18 20 18 1 6 5 5 9
23 22 23 21 21 21 13 4 6 3 3 1 1 5 4 2 4 5 6 1 5 5 3 3 2 4 4 5 8 5 5 5 7 4 8 9 15 7 12 5 4 3 4 7
21 22 21 19 20 22 15 6 7 5 2 3 3 1 5 4 7 4 3 6 1 2 2 3 3 3 4 5 3 1 0 6 5 7 8 13 14 18 7 5 3 3 4 8
18 18 16 16 19 24 13 7 7 5 3 5 2 2 3 2 8 8 6 8 5 3 3 2 5 3 4 2 2 5 8 7 2 3 2 2 13 13 10 9 9 8 7 9
13 13 8 15 15 27 8 4 4 6 4 3 3 2 3 3 6 8 9 8 3 3 4 3 3 2 4 5 7 7 11 12 16 9 5 4 17 17 11 12 4 6 7 10
11 11 15 16 31 10 3 5 5 16 2 2 3 2 1 4 5 3 3 3 3 3 2 4 4 5 6 3 6 2 9 12 9 7 6 9 9 7 2 2 4 6 8 8
9 6 22 22 18 11 2 1 22 12 5 2 3 1 2 4 4 5 2 4 2 3 3 1 4 2 2 4 8 8 6 9 11 13 14 7 3 4 1 4 9 12 11 14
9 28 23 6 4 2 1 19 15 4 2 4 3 6 5 6 3 4 3 2 4 2 5 5 6 2 7 10 10 6 9 13 8 6 5 5 5 5 6 7 7 13 13 14
15 6 6 3 0 19 8 4 3 2 2 3 2 0 4 5 3 3 5 3 4 5 6 6 7 5 13 3 5 3 2 4 7 6 5 7 7 10 10 13 8 12 15 16
4 3 3 1 3 3 3 3 2 1 0 2 0 3 4 2 3 4 2 4 5 5 5 8 5 6 9 8 2 2 1 3 7 5 1 4 1 10 9 7 7 10 16 17
4 6 4 2 4 3 5 1 1 2 4 2 3 3 1 3 2 1 4 5 3 7 5 6 5 2 5 6 4 7 4 4 8 6 8 8 10 14 13 13 14 15 13 17
3 5 4 2 2 3 4 5 2 2 2 1 2 3 2 2 1 2 3 5 6 2 4 6 0 3 7 9 7 8 6 5 5 4 5 7 10 11 14 16 12 17 18 16
5 3 3 1 1 1 2 1 0 2 2 1 0 1 2 1 3 2 5 3 3 5 5 5 3 7 10 10 8 6 6 5 4 5 6 13 14 12 12 13 15 17 19 17
4 3 4 2 0 2 1 1 2 2 4 3 1 1 2 2 2 3 3 4 6 5 3 3 4 9 10 9 9 8 7 2 3 6 7 13 15 15 15 13 13 17 15 16
4 7 3 1 1 1 2 4 2 5 6 3 3 2 3 3 1 2 1 3 2 1 3 5 7 7 8 9 7 7 5 2 5 8 8 11 14 17 18 16 15 15 15 16
5 3 2 1 3 3 1 2 4 6 4 1 2 3 2 0 2 2 3 2 3 5 6 6 9 9 9 7 5 6 4 7 7 9 10 12 14 16 19 20 15 16 17 15
Wind_Direction
267 262 259 254 254 238 227 225 229 191 177 214 218 231 219 235 225 228 239 246 223 221 211 202 210 212 200 198 179 196 202 187 168 200 15 295 225 206 178 178 204 231 285 257
274 272 266 252 249 224 207 216 192 199 179 217 221 224 257 215 218 212 222 229 234 225 228 224 209 210 203 189 186 191 185 203 160 136 279 204 224 212 209 227 47 211 207 254
262 261 247 239 233 227 220 195 208 174 200 224 224 215 230 243 231 239 223 217 225 234 225 232 227 220 194 194 195 202 185 212 213 204 210 151 197 203 205 197 186 226 230 255
258 248 242 240 223 238 208 187 213 200 181 212 221 220 227 220 235 212 213 227 210 218 227 222 228 228 212 201 192 195 199 220 219 230 239 188 198 193 191 199 216 202 233 236
263 251 240 234 226 214 214 197 211 153 226 206 208 218 223 230 227 236 227 222 209 208 230 219 214 222 222 205 205 193 194 223 218 233 227 213 203 195 190 201 215 229 235 263
261 250 237 233 225 206 196 187 213 209 212 224 218 215 220 219 220 223 222 219 223 215 219 224 231 240 269 88 217 200 194 177 181 219 170 151 236 199 194 206 212 216 209 237
250 246 235 232 229 210 209 181 169 189 226 224 228 247 220 211 203 199 202 190 218 217 213 219 112 172 224 239 235 227 228 179 191 206 153 219 218 194 199 203 209 217 234 245
245 237 229 231 232 221 173 175 198 187 225 224 219 219 192 191 203 210 212 189 169 213 198 191 172 190 186 206 236 238 241 232 219 210 199 153 189 187 185 187 225 208 225 241
233 230 228 227 225 225 162 169 160 212 199 218 206 182 188 165 176 182 182 167 209 188 229 188 206 200 160 189 204 210 218 243 210 187 216 218 200 181 194 176 254 210 215 228
220 224 223 220 221 219 172 167 187 184 198 266 181 192 176 157 155 153 162 157 167 189 178 229 206 170 150 191 182 182 205 212 206 208 219 230 193 152 150 174 229 247 212 210
214 216 218 216 219 216 213 157 188 184 202 233 197 195 163 149 168 163 170 136 169 178 167 191 189 160 183 185 200 173 240 209 215 223 233 230 150 158 173 205 197 112 209 192
205 208 215 217 217 215 202 163 196 177 214 258 161 242 261 185 176 132 179 178 154 159 163 182 153 208 164 168 218 121 238 187 311 282 246 311 182 180 204 173 170 214 188 191
197 204 213 218 211 200 192 149 159 138 164 126 213 197 207 287 166 156 136 247 178 170 182 172 210 187 153 198 224 203 235 126 202 124 249 277 216 212 196 197 190 204 199 176
197 208 212 211 207 206 184 161 171 123 99 155 221 356 220 178 153 179 137 135 121 91 126 210 194 199 203 191 144 199 161 156 209 264 275 299 269 239 203 184 154 193 186 183
201 204 203 210 220 223 184 145 183 162 158 185 179 135 236 188 165 173 134 174 169 133 209 183 212 157 186 196 160 206 174 207 289 311 2 315 298 341 272 227 202 175 167 133
173 163 217 241 211 130 112 151 195 180 127 146 151 40 217 116 158 171 166 186 172 169 189 220 220 266 192 198 207 202 184 188 202 220 155 282 274 291 278 226 201 136 139 155
150 235 221 169 144 134 139 191 157 164 140 98 96 236 47 136 120 153 143 158 159 173 176 208 227 224 198 233 242 195 169 189 211 195 136 266 283 288 211 177 101 90 94 110
144 187 151 136 122 121 84 22 147 117 85 55 126 123 159 177 158 180 180 159 138 154 194 128 213 152 242 239 234 199 197 213 215 211 207 218 187 92 163 103 131 113 127 127
129 115 112 86 42 84 355 139 107 68 98 149 163 151 181 164 164 141 172 149 182 118 188 214 177 185 214 216 211 216 181 187 192 208 193 168 202 198 147 137 152 136 136 126
106 52 54 83 328 125 98 63 102 93 19 41 204 140 164 187 140 145 142 156 192 191 219 139 208 226 241 208 109 53 93 129 148 145 206 213 186 179 171 186 168 160 144 134
35 58 67 18 65 61 41 87 123 89 33 168 249 206 140 200 157 154 212 176 165 203 204 193 195 229 207 24 132 69 333 242 258 281 281 249 354 163 145 144 142 141 138 140
158 115 95 64 44 62 89 59 42 192 213 183 183 192 192 140 156 183 180 185 157 230 148 177 228 198 26 7 335 310 303 284 275 255 247 234 167 159 160 153 144 140 124 137
57 52 63 20 340 101 179 179 235 234 162 229 178 162 138 141 199 98 230 156 206 19 204 216 44 23 354 336 331 312 316 287 244 239 224 122 98 124 144 139 134 131 129 138
67 76 61 19 226 148 152 189 132 16 297 328 288 134 194 99 163 120 235 89 150 210 227 205 72 358 328 319 322 332 306 287 181 157 138 107 105 104 107 121 133 133 139 140
69 68 189 217 47 73 35 289 260 355 300 287 179 210 223 134 155 215 137 144 220 229 246 16 13 332 325 324 327 316 322 316 142 113 111 116 120 118 111 112 120 125 135 133
59 36 100 34 147 87 29 10 353 0 328 276 242 229 208 170 253 179 104 265 216 33 339 322 328 330 325 318 320 317 320 23 90 99 116 115 122 121 114 104 105 108 114 115
72 67 40 11 51 72 43 345 329 318 297 49 301 244 3 139 86 103 24 359 342 331 320 323 326 321 320 326 341 351 51 79 71 86 95 107 116 117 109 104 98 95 90 87